Regional Weather Roundup
Issued by NWS Portland, ME

Current Version | Previous Version | Text Only | Print | Product List | Glossary Off
Versions: 1 2 3 4 5 6 7 8 9 10 11 12 13 14 15 16 17 18 19 20 21 22 23 24 25 26 27 28 29 30 31 32 33 34 35 36 37 38 39 40 41 42 43 44 45 46 47 48 49 50

000
ASUS41 KGYX 051605
RWRGYX
WEATHER ROUNDUP FOR MAINE AND NEW HAMPSHIRE
NATIONAL WEATHER SERVICE GRAY ME
1100 AM EST THU MAR 05 2015

MEZ002-005-006-010-012-015-018-020-021-024-026-027-029-051700-
MAINE

CITY           SKY/WX    TMP DP  RH WIND       PRES   REMARKS
PORTLAND       CLOUDY    25   6  44 NW20      30.08R WCI  11
SANFORD        CLOUDY    27   3  36 W12G22    30.06R WCI  16
BAR HARBOR     CLOUDY    25   5  42 NW8G18    30.01R
WISCASSET      CLOUDY    25   6  44 VRB6      30.07R
ROCKLAND       CLOUDY    25   5  42 NW13      30.03S WCI  13
FRYEBURG       CLOUDY    21   4  47 NW9       30.08R
LEWISTONAUBURN CLOUDY    21   0  39 NW14G23   30.07R WCI   8
AUGUSTA        CLOUDY    21   1  41 NW15G23   30.05R WCI   8
WATERVILLE     CLOUDY    21   0  39 NW15G24   30.03R WCI   8
BANGOR         CLOUDY    21   0  39 NW16G24   30.03R WCI   7
GREENVILLE       N/A      9  -8  46 NW14G26   29.96R WCI  -7
MILLINOCKET    CLOUDY    15  -3  44 W14G29    30.03R WCI   0
HOULTON        CLOUDY    14  -4  44 NW12G22   29.96R WCI   0
PRESQUE ISLE   MOSUNNY   12  -9  37 NW18      29.99R WCI  -5
FRENCHVILLE    SUNNY      3 -14  45 NW17G25   29.94R WCI -17
CARIBOU        SUNNY      9 -12  38 NW17G26   29.96R WCI  -9
$$

NHZ002-005-008-009-011-012-014-051700-
NEW HAMPSHIRE

CITY           SKY/WX    TMP DP  RH WIND       PRES   REMARKS
PORTSMOUTH     CLOUDY    26   4  39 NW24      30.05R WCI  11
ROCHESTER      CLOUDY    25   2  37 NW16G24   30.06R WCI  12
NASHUA         CLOUDY    28   3  34 NW14      30.09R WCI  17
MANCHESTER     CLOUDY    27   6  41 NW17      30.06R WCI  14
CONCORD        CLOUDY    24   3  40 NW13G25   30.09R WCI  12
LACONIA        CLOUDY    21   1  42 W14       30.06R WCI   8
PLYMOUTH       FAIR      20   7  58 NW12G20   30.09R WCI   7
BERLIN         CLOUDY    15  -2  46 NW13G20   30.03R WCI   1
WHITEFIELD     CLOUDY    16   1  51 NW10      30.05R WCI   4
JAFFREY        CLOUDY    23   1  38 NW8       30.03R
KEENE          CLOUDY    25   3  39 N15       30.08R WCI  12
LEBANON        CLOUDY    20   4  50 NW10      30.11R WCI   9
MT WASHINGTON  BLWGSNOW -11 -11 100 NW56        N/A  VSB 1/16WCI -49
$$

VTZ005-007-008-051700-
VERMONT

CITY           SKY/WX    TMP DP  RH WIND       PRES   REMARKS
ST JOHNSBURY     N/A     15  -2  46 MISG      30.10R
MONTPELIER     CLOUDY    12   0  58 NW9G20    30.14S
BURLINGTON     CLOUDY    13  -4  46 N8        30.22S
$$

MAZ007-012-024-CTZ003-RIZ002-NYZ038-NYZ072-051700-
SOUTHERN NEW ENGLAND AND NY

CITY           SKY/WX    TMP DP  RH WIND       PRES   REMARKS
BOSTON         CLOUDY    31   8  38 NW12      30.06R
WORCESTER      CLOUDY    25   5  42 NW16      30.01S WCI  12
NANTUCKET      LGT SNOW  30  27  88 N17G29    30.05R VSB 3/4 WCI  18
PROVIDENCE     SNOW      26  23  88 NW10      30.09R VSB 1/2 WCI  16
HARTFORD       CLOUDY    28   5  37 NW13      30.09S WCI  17
ALBANY         CLOUDY    21   5  50 NW14      30.17F WCI   8
NEW YORK CITY  SNOW      26  23  88 N9        30.12F VSB 1/4
$$

ANZ081-ANZ082-ANZ150-NHZ014-MEZ023>029-051700-
COASTAL MARINE OBSERVATIONS

STATION/POSITION TIME  TEMP    WIND        PRES    WAVE
                       AIR SEA DIR/SP/G            HT/PER
                 (UTC) (F)     (DEG/KT/KT) (MB)    (FT/S)
MOUNT DESERT ROC 1600   25                 1015.2R
MATINICUS ROCK   1500   26     360/ 25/ 28 1015.7R
WELLS            1500   28     320/ 13/ 17 1016.3R
ISLE OF SHOALS   1500   29     320/ 19/ 21 1016.3R
JEFFREYS LEDGE   1521      39                N/A     6/ 5
CASHES LEDGE BUO 1550   31 38              1014.8R   6/10
$$

.............KEY..............
   WCI - WIND CHILL
   TC  - TEMPERATURE IN CELSIUS
   VSB - VISIBILITY IN MILES
   HX  - HEAT INDEX
   FAIR- INDICATES FEW OR NO CLOUDS BELOW 12,000 FT, WITH NO
         SIGNIFICANT WEATHER AND/OR OBSTRUCTIONS TO VISIBILITY.





USA.gov is the U.S. government's official web portal to all federal, state and local government web resources and services.